Location: ???????????
(55.5758°N, 38.4970°E)
Time: 05:37:57
(UTC+00:00)

Daily predictions for brighter satellites

Satellite Brightness Start Highest point End
(mag) Time Altitude Azimuth Time Altitude Azimuth Time Altitude Azimuth
Cosmos 2237 Rocket 4.5 00:13:51 17° ESE 00:14:27 17° E 00:18:00 10° ENE
Cosmos 2369 Rocket 4.1 00:17:55 25° NE 00:17:55 25° NE 00:21:59 10° E
ADEOS Rocket 4.0 00:15:27 10° NNE 00:21:56 49° E 00:21:56 49° E
ADEOS II 4.4 00:17:39 10° NNE 00:19:01 18° NNE 00:19:01 18° NNE
Cosmos 2360 Rocket 4.1 00:29:09 24° NNE 00:29:09 24° NNE 00:31:23 10° NNE
Cosmos 2322 Rocket 4.0 00:34:12 25° NNE 00:34:12 25° NNE 00:36:32 10° NNE
Cosmos 2333 Rocket 4.0 00:35:28 25° NNE 00:35:28 25° NNE 00:37:55 10° NNE
SJ 16-02 4.3 00:38:25 12° ESE 00:38:25 12° ESE 00:38:45 10° ESE
USA 234 3.9 00:30:29 10° ESE 00:35:06 50° ESE 00:35:06 50° ESE
CZ-2D R/B 4.3 00:35:31 10° NNE 00:36:47 18° NNE 00:36:47 18° NNE
ACS3 Solar Sail 2.6 00:35:30 10° NNE 00:39:55 45° NE 00:39:55 45° NE
SL-16 R/B 4.0 00:44:51 23° NNE 00:44:51 23° NNE 00:47:12 10° NNE
COSMOS 2455 4.1 00:46:06 35° NNE 00:46:06 35° NNE 00:49:43 10° NE
Resurs 1-4 Rocket 4.2 00:47:53 10° NNE 00:49:16 18° N 00:49:16 18° N
Cosmos 1725 Rocket 4.4 00:52:20 10° N 00:58:38 60° ENE 01:04:52 10° SSE
Cosmos 2219 Rocket 3.4 01:03:00 34° NNE 01:03:00 34° NNE 01:06:18 10° NNE
NOSS 3-1 (C) 3.9 01:03:05 49° ENE 01:03:05 49° ENE 01:07:43 10° NE
Cosmos 1727 Rocket 4.3 01:07:36 60° NNE 01:07:36 60° NNE 01:12:40 10° NNE
Lacrosse 4 Rocket 4.0 01:11:04 16° NE 01:11:04 16° NE 01:12:41 10° ENE
NOSS 3-2 (C) 4.3 01:11:41 43° N 01:12:14 44° N 01:19:28 10° ENE
Lacrosse 5 rocket 4.1 01:16:10 13° E 01:16:10 13° E 01:16:34 10° E
H-2A R/B 3.6 01:14:32 10° NNE 01:16:39 26° NNE 01:16:39 26° NNE
Cosmos 1802 Rocket 4.2 01:13:37 10° N 01:21:19 60° SSE 01:26:19 10° SSE
NOSS 0 Rocket 4.2 01:20:16 58° SSE 01:20:58 62° ESE 01:27:04 10° NE
Cosmos 1000 Rocket 4.4 01:28:39 82° SSW 01:28:59 89° W 01:35:22 10° NNE
NOSS 3-2 (A) 4.2 01:31:49 43° NNW 01:33:46 56° NNE 01:41:40 10° E
COSMOS 2428 2.7 01:39:07 71° N 01:39:07 71° N 01:44:21 10° NNE
Cosmos 1980 Rocket 4.1 01:38:37 17° N 01:39:04 17° N 01:42:45 10° NE
Meteor 2-5 Rocket 3.9 01:37:02 39° S 01:39:15 74° E 01:45:01 10° NNE
Cosmos 2322 3.8 01:40:26 62° N 01:40:26 62° N 01:45:25 10° NNE
USA 267 4.3 01:34:24 10° ENE 01:40:28 39° SE 01:44:05 22° SSW
CZ-2C R/B 2.7 01:35:57 10° NNE 01:41:00 67° ESE 01:42:21 47° SSE
Cosmos 1980 4.0 01:40:45 49° S 01:42:07 65° ESE 01:47:46 10° NE
Cosmos 2123 Rocket 3.9 01:39:50 31° S 01:43:01 83° E 01:49:14 10° NNE
Cosmos 2016 Rocket 3.9 01:37:24 10° NNW 01:43:49 81° W 01:50:09 10° S
Cosmos 1939 Rocket 3.9 01:46:53 10° NNE 01:50:34 42° E 01:51:19 37° SE
NOSS 3-1 (A) 3.2 01:50:03 60° S 01:50:47 69° SE 01:56:51 10° NE
Meteor 2-21 4.2 01:50:58 69° W 01:51:11 69° WNW 01:57:14 10° N
Cosmos 2084 4.3 01:52:25 42° NE 01:52:25 42° NE 01:55:55 10° E
Cosmos 1190 Rocket 4.3 01:54:11 51° S 01:54:11 51° S 01:58:10 10° SSE
Cosmos 676 Rocket 3.9 01:54:26 62° NNW 01:55:20 85° ENE 02:00:32 10° SSE
Cosmos 2297 4.0 01:54:05 34° NNW 01:56:32 64° NE 02:02:08 10° SE
CENTAUR R/B 3.2 01:52:52 38° NW 01:56:34 86° NE 02:05:49 10° SE
ARGOS 3.0 01:52:00 10° NNE 01:57:28 84° WNW 01:58:54 51° SSW
Cosmos 2237 Rocket 2.3 01:55:42 43° SSW 01:57:36 76° ESE 02:03:16 10° NE
ADEOS II 3.7 01:57:38 10° N 01:59:50 21° NNW 01:59:50 21° NNW
Cosmos 2369 Rocket 2.4 01:59:43 33° NNW 02:02:18 70° NE 02:07:59 10° SE
USA 238 DEB 4.4 02:03:31 35° NW 02:05:43 45° N 02:12:50 10° ENE
USA 238 4.4 02:03:37 35° NW 02:05:50 45° N 02:12:57 10° ENE
Cosmos 1954 Rocket 3.9 02:07:31 64° SW 02:07:31 64° SW 02:12:27 10° SSE
ADEOS Rocket 3.5 02:01:09 10° N 02:07:32 50° WNW 02:08:52 45° W
Cosmos 2360 Rocket 3.5 02:10:54 25° NNW 02:10:54 25° NNW 02:15:21 10° NNE
Meteor 2-16 Rocket 4.3 02:05:47 11° SSW 02:11:43 77° WNW 02:17:54 10° N
SJ 16-02 2.0 02:15:02 39° S 02:15:02 39° S 02:17:52 10° S
Cosmos 2322 Rocket 3.6 02:15:59 23° NNW 02:16:08 23° NNW 02:20:37 10° NNE
IRS-1D 4.4 02:11:22 10° NNE 02:16:11 48° E 02:20:56 10° S
Cosmos 2333 Rocket 3.7 02:17:29 22° NNW 02:17:55 22° NNW 02:22:22 10° NNE
SKYMED 2 3.6 02:13:40 10° SSE 02:18:00 79° ENE 02:21:03 20° NNW
CZ-2D R/B 3.9 02:16:21 10° N 02:18:02 16° NNW 02:18:02 16° NNW
USA 234 3.5 02:14:11 10° SE 02:20:31 49° SW 02:22:27 39° W
NOSS 2-2 (E) 3.8 02:23:27 43° N 02:23:57 46° NNE 02:28:04 10° ESE
ACS3 Solar Sail 2.3 02:18:48 10° N 02:24:02 36° WNW 02:24:02 36° WNW
SeaSat 1 4.1 02:21:05 10° NNE 02:24:16 19° NNW 02:24:16 19° NNW
COSMO-SKYMED 1 2.7 02:20:56 10° SSE 02:25:01 68° ENE 02:28:38 13° N
USA 59 Rocket 0.9 02:28:26 23° NNE 02:28:26 23° NNE 02:29:59 10° NE
SL-16 R/B 3.8 02:26:41 18° NNW 02:27:40 19° NNW 02:31:37 10° NNE
Cosmos 1371 Rocket 4.5 02:23:08 10° S 02:28:21 62° ESE 02:33:39 10° NNE
Cosmos 968 Rocket 3.5 02:25:09 22° NNW 02:28:35 83° ENE 02:33:51 10° SSE
COSMOS 2455 3.9 02:29:14 26° NW 02:30:51 30° NNW 02:36:07 10° NE
Cosmos 1741 Rocket 4.3 02:26:44 17° NNW 02:30:52 70° ENE 02:36:10 10° SE
Resurs 1-4 Rocket 4.0 02:28:46 10° N 02:30:19 14° NNW 02:30:19 14° NNW
Cosmos 371 Rocket 3.4 02:32:57 47° W 02:33:19 48° WSW 02:37:58 10° S
Cosmos 2061 Rocket 4.0 02:29:21 10° NNW 02:35:23 55° W 02:41:23 10° SSW
Cosmos 1891 Rocket 4.5 02:29:30 10° NNW 02:35:56 89° W 02:42:12 10° S
CZ-4 R/B 4.3 02:33:20 10° NNE 02:38:13 65° ESE 02:42:57 10° S
Aureole 3 Rocket 3.6 02:35:05 10° NNW 02:39:49 78° W 02:46:27 10° S
Cosmos 2292 Rocket 4.4 02:35:23 13° SSW 02:40:08 58° WNW 02:46:47 10° N
Cosmos 1656 Rocket 4.0 02:38:46 36° WNW 02:40:24 45° WSW 02:45:45 10° S
Cosmos 304 Rocket 4.1 02:41:42 40° W 02:41:53 40° WSW 02:46:19 10° S
Gbstr 26 Del rocket 3.8 02:39:58 35° WSW 02:42:01 59° S 02:48:01 10° ESE
Meteor 1-24 Rocket 4.0 02:41:06 35° W 02:42:32 41° WNW 02:47:40 10° N
Cosmos 2219 Rocket 3.4 02:44:42 23° NW 02:45:42 24° NNW 02:50:15 10° NNE
Cosmos 2233 Rocket 4.3 02:40:20 10° NNW 02:46:15 44° W 02:52:06 10° SSW
Cosmos 1400 Rocket 2.5 02:44:17 19° NNW 02:46:51 86° ENE 02:50:32 10° SSE
Lacrosse 4 Rocket 2.2 02:46:35 22° NNW 02:48:46 44° NE 02:52:33 10° ESE
Cosmos 2151 Rocket 3.6 02:44:47 10° N 02:49:19 82° ENE 02:53:48 10° SSE
Cosmos 1484 Rocket 4.4 02:46:50 10° NNE 02:50:05 33° E 02:53:19 10° SSE
Lacrosse 5 rocket 0.8 02:49:50 57° WSW 02:50:16 66° SSW 02:53:34 10° ESE
In-Cosmos 22 Rocket 4.4 02:45:31 10° S 02:51:20 81° E 02:57:08 10° NNE
USA 306 3.5 02:50:32 25° SSW 02:51:54 38° SSE 02:55:30 10° E
NOSS 3-1 (C) 3.7 02:50:25 31° WNW 02:52:44 49° NNW 02:59:13 10° ENE
NOSS 2-2 (C) 3.3 02:53:25 41° WNW 02:54:38 70° SW 02:59:22 10° SE
Sich 1 Rocket 4.0 02:51:49 10° N 02:56:22 67° ENE 03:00:51 10° SSE
Cosmos 1447 Rocket 4.4 02:50:17 10° SSW 02:56:34 76° WNW 03:02:57 10° N
H-2A R/B 3.5 02:54:47 10° N 02:57:08 18° NW 02:57:08 18° NW
Cosmos 1464 Rocket 4.0 02:52:03 10° N 02:58:16 87° E 03:04:24 10° S
H-2A R/B 3.8 02:55:34 10° N 02:58:58 34° WNW 02:58:58 34° WNW
PAYLOAD A 4.5 02:55:45 10° N 03:00:49 42° WNW 03:05:40 10° SW
SL-16 R/B 2.5 02:55:14 10° SSW 03:00:53 72° ESE 03:06:35 10° NE
SWARM C 4.4 02:58:30 10° S 03:01:49 85° W 03:05:10 10° N
SWARM A 4.2 02:58:37 10° S 03:01:56 82° E 03:05:16 10° N
Cosmos 332 Rocket 3.7 02:58:13 16° NNW 03:02:08 79° WSW 03:06:54 10° SSE
Cosmos 1624 Rocket 3.9 02:57:00 10° SSW 03:02:11 81° WNW 03:07:24 10° NNE
Cosmos 1420 Rocket 4.1 02:57:42 14° SW 03:02:11 56° NW 03:07:27 10° NNE
NOSS 3-2 (C) 4.1 02:59:05 19° NW 03:04:08 68° NNE 03:12:22 10° ESE
SL-08 RB Rocket 4.3 03:00:30 10° N 03:04:35 33° WNW 03:06:14 25° WSW
Helios 1A Rocket 2.9 03:02:02 10° S 03:05:11 36° W 03:05:20 36° W
Cosmos 1378 Rocket 3.5 03:00:57 10° S 03:05:13 84° E 03:09:33 10° NNE
Cosmos 2242 Rocket 3.5 03:02:31 10° SSW 03:06:54 66° WNW 03:11:21 10° N
Okean 1 Rocket 3.1 03:03:04 10° N 03:07:26 81° ENE 03:11:45 10° SSE
NOSS 0 Rocket 4.3 03:04:17 23° W 03:07:44 43° NW 03:13:37 10° NNE
Cosmos 2346 Rocket 4.4 03:03:12 10° SSW 03:09:15 62° WNW 03:15:17 10° N
Cosmos 2034 Rocket 4.2 03:03:15 10° N 03:09:37 76° ENE 03:16:00 10° SSE
Cosmos 1812 4.0 03:14:35 16° SW 03:14:35 16° SW 03:15:26 10° SSW
Meteor 2-1 Rocket 4.4 03:07:12 10° NNW 03:13:11 85° ENE 03:19:01 10° SSE
NOSS 2-2 (D) 3.2 03:14:49 26° WNW 03:16:48 78° SW 03:21:28 10° SE
NOSS 2-1 (E) 3.9 03:16:18 24° NW 03:16:50 25° NNW 03:19:28 10° NE
Cosmos 1452 Rocket 4.5 03:13:00 10° S 03:18:03 50° ESE 03:23:06 10° NE
CZ-2C R/B 3.4 03:14:30 10° N 03:18:43 28° WNW 03:21:33 17° WSW
Cosmos 1850 Rocket 4.1 03:14:13 13° NW 03:18:47 55° WSW 03:23:48 10° S
PKM 4.2 03:19:13 20° W 03:22:51 57° SSW 03:25:43 10° SE
COSMOS 2428 3.8 03:21:07 19° WNW 03:23:45 27° NNW 03:28:33 10° NNE
USA 267 3.4 03:17:30 10° ENE 03:24:05 79° SSE 03:30:39 10° WSW
Cosmos 1939 Rocket 3.7 03:21:08 10° N 03:24:22 26° WNW 03:26:12 18° WSW
NOSS 3-2 (A) 4.0 03:19:10 16° NW 03:25:03 73° SW 03:33:32 10° SE
Cosmos 1980 Rocket 4.0 03:20:53 10° NNW 03:25:13 22° NNE 03:29:31 10° ENE
Cosmos 1980 4.3 03:22:38 17° W 03:26:34 37° NW 03:31:51 10° NNE
USA 229 DEB 4.0 03:20:49 10° SSW 03:26:47 64° SE 03:33:35 10° NE
USA 229 4.0 03:21:02 10° SSW 03:26:59 64° SE 03:33:47 10° NE
IGS 5A 4.0 03:23:56 10° NNE 03:27:57 60° ESE 03:31:54 10° S
Cosmos 2084 3.4 03:28:09 20° WNW 03:30:50 57° SW 03:34:46 10° SE
Cosmos 1331 Rocket 4.2 03:27:11 10° SSW 03:32:26 76° ESE 03:37:39 10° NNE
Meteor 1-11 4.3 03:29:14 10° SSW 03:35:06 89° W 03:40:59 10° NNE
ARGOS 4.3 03:33:01 10° N 03:37:03 22° NW 03:40:21 13° W
Cosmos 1356 Rocket 4.3 03:33:12 10° N 03:37:10 48° ENE 03:41:08 10° SE
Cosmos 2297 4.4 03:36:01 13° NW 03:40:23 32° WSW 03:45:17 10° SSW
CBERS-1 4.2 03:35:46 10° NNE 03:40:55 77° ESE 03:46:02 10° SSW
NOSS 3-1 (A) 3.7 03:37:27 14° W 03:41:54 49° NNW 03:48:24 10° ENE
SMAP 4.0 03:37:33 10° NNE 03:42:08 52° E 03:46:41 10° S
Cosmos 2237 Rocket 2.9 03:37:34 12° W 03:42:11 33° NW 03:47:18 10° NNE
Cosmos 1441 Rocket 4.1 03:40:22 10° S 03:43:34 45° E 03:46:47 10° NNE
Okean 2 Rocket 3.5 03:40:41 10° NNW 03:44:48 41° W 03:48:53 10° SSW
Cosmos 2369 Rocket 3.1 03:41:31 12° NW 03:45:55 29° WSW 03:50:43 10° SSW
CENTAUR R/B 3.8 03:40:00 12° WNW 03:47:02 42° WSW 03:55:31 10° S
ATLAS 3B R/B 3.2 03:40:41 10° SW 03:48:22 83° SE 03:56:19 10° NE
NOSS 2-1 (D) 4.3 03:49:19 13° NW 03:51:01 20° N 03:53:24 10° NE
Cosmos 2056 Rocket 4.0 03:46:05 10° WSW 03:51:11 41° NW 03:56:17 10° NNE
Cosmos 1943 3.6 03:46:19 10° SSW 03:51:53 68° ESE 03:57:28 10° NE
NOSS 2-1 (C) 4.3 03:52:10 13° NW 03:53:58 20° N 03:56:21 10° NE
IRS-1D 4.0 03:50:45 10° N 03:55:13 34° WNW 03:59:38 10° WSW
Orbus 7S? 2.7 03:51:42 10° WSW 03:55:38 86° NNW 03:58:17 10° ENE
Cosmos 2360 Rocket 4.0 03:53:09 10° NW 03:56:47 17° N 04:00:24 10° NE
USA 238 DEB 4.2 03:50:56 10° NW 03:57:48 62° NNE 04:05:31 10° ESE
USA 238 4.2 03:51:02 10° NW 03:57:55 62° NNE 04:05:37 10° ESE
Cosmos 1315 Rocket 2.9 03:54:20 10° NNW 03:58:12 76° ENE 04:02:02 10° SSE
COSMO-SKYMED 1 3.9 03:57:57 10° SW 04:00:48 18° W 04:03:41 10° NW
Iridium 45 4.3 03:57:46 10° NNW 04:00:54 55° W 04:04:01 10° S
Cosmos 2228 3.2 03:57:05 10° N 04:01:20 74° ENE 04:05:35 10° SSE
Cosmos 292 Rocket 4.0 03:57:24 10° NW 04:02:03 50° WSW 04:06:39 10° S
Cosmos 2322 Rocket 4.0 03:58:35 10° NW 04:02:18 17° N 04:06:00 10° NE
NOSS 2-3 (C) 4.3 03:58:39 10° NW 04:03:07 61° NNE 04:09:11 10° ESE
Cosmos 2333 Rocket 4.0 04:00:26 10° NW 04:04:22 18° N 04:08:19 10° NE
Cosmos 1544 Rocket 4.5 04:00:13 10° N 04:04:32 51° ENE 04:08:52 10° SSE
ACS3 Solar Sail 3.5 04:03:55 10° NNW 04:05:36 11° NW 04:07:17 10° NW
Cosmos 1025 Rocket 3.3 04:06:09 10° SW 04:10:21 46° WNW 04:14:36 10° N
NOSS 2-3 (E) 4.2 04:06:03 10° NW 04:10:40 72° NE 04:16:51 10° ESE
Cosmos 1461 3.8 04:07:37 10° NW 04:11:20 36° NNE 04:14:59 10° E
NOSS 2-2 (E) 4.2 04:09:55 10° WNW 04:13:22 38° SW 04:17:54 10° SSE
SL-16 R/B 4.0 04:10:01 10° NNW 04:13:58 19° NNE 04:17:55 10° ENE
MOS 1 Rocket 4.3 04:09:10 10° NNE 04:13:58 56° E 04:19:00 10° S
Cosmos 1674 Rocket 4.2 04:11:16 10° SW 04:15:18 34° WNW 04:19:22 10° N
USA 59 Rocket 0.9 04:14:29 10° NW 04:16:45 20° N 04:19:11 10° NE
COSMOS 2455 4.1 04:13:10 10° NW 04:18:28 30° NNE 04:23:45 10° ENE
Cosmos 1697 Rocket 3.5 04:13:48 10° NNW 04:19:15 47° NE 04:24:41 10° ESE
USA 306 2.8 04:16:48 10° WSW 04:20:19 69° S 04:24:20 10° E
Tsikada Rocket 4.1 04:16:30 10° SSW 04:22:51 79° WNW 04:29:20 10° N
